Location: Boursonne
(49.2024°N, 3.0468°E)
Time: 01:27:42
(UTC+00:00)

SPOT 1/Viking Rocket - Pass Details

Date: 03 March 2021
Orbit: 778 x 793 km, 98.4° (Epoch: 12 April)

Event Time Altitude Azimuth Distance (km) Brightness Sun altitude
Exits shadow 20:29:54 39° 12° (NNE) 1,156 4.4 -28.8°
Drops below altitude 10° 20:33:19 10° 352° (N) 2,352 6.4 -29.3°
Sets 20:35:41 0° 349° (N) 3,287 7.3 -29.6°
